Orbital Elements at Epoch 2459200.5 (2020-Dec-17.0) TDB
Reference: JPL 14 (heliocentric ecliptic J2000)
Element | Value | Uncertainty (1-sigma) | Units |
e | .1951080516677264 | 4.7677e-08 | |
a | 2.38572582896648 | 1.3943e-08 | au |
q | 1.920251510663459 | 1.1334e-07 | au |
i | 4.429076083057605 | 4.9365e-06 | deg |
node | 144.9022077774699 | 6.6995e-05 | deg |
peri | 203.4944704575785 | 6.8135e-05 | deg |
M | 83.6123155314162 | 1.555e-05 | deg |
tp | 2458887.894240266927 (2020-Feb-08.39424027) | 5.6241e-05 | TDB |
period | 1345.950925873135 3.69 | 1.1799e-05 3.23e-08 | d yr |
n | .2674688898976488 | 2.3448e-09 | deg/d |
Q | 2.851200147269501 | 1.6664e-08 | au |
|
| | Orbit Determination Parameters
Additional Information
|